Skip Page Navigation
NASA JPL Caltech
NASA Logo - Jet Propulsion Laboratory + View the NASA Portal
+ Near-Earth Object (NEO) Program
Search JPL
JPL Home Earth Solar System Stars & Galaxies Technology
JPL Solar System Dynamics
BODIES ORBITS EPHEMERIDES TOOLS PHYSICAL DATA DISCOVERY FAQ SITE MAP
JPL Small-Body Database Browser
Search: [ help ]  
3537 Jurgen (1982 VT)
Classification: Main-belt Asteroid          SPK-ID: 2003537
Ephemeris | Orbit Diagram | Orbital Elements | Physical Parameters | Discovery Circumstances | Close-Approach Data ]

[ show orbit diagram ]
Orbital Elements at Epoch 2457400.5 (2016-Jan-13.0) TDB
Reference: JPL 23 (heliocentric ecliptic J2000)
 Element Value Uncertainty (1-sigma)   Units 
e .1571543318208532 5.8233e-08  
a 2.587871043105175 2.5865e-08 au
q 2.181175898487447 1.6226e-07 au
i 15.17372776495566 8.226e-06 deg
node 44.25357967397691 1.9573e-05 deg
peri 277.7265895373258 3.8811e-05 deg
M 56.79949763142188 3.087e-05 deg
tp 2457160.586676343485
(2015-May-18.08667634)
0.00013183 JED
period 1520.590852348764
4.16
2.2797e-05
6.241e-08
d
yr
n .2367500760930727 3.5494e-09 deg/d
Q 2.994566187722903 2.993e-08 au
  Orbit Determination Parameters
   # obs. used (total)      1167  
   data-arc span      12111 days (33.16 yr)  
   first obs. used      1982-10-20  
   last obs. used      2015-12-17  
   planetary ephem.      DE431  
   SB-pert. ephem.      SB431-BIG16  
   condition code      0  
   fit RMS      .43098  
   data source      ORB  
   producer      Otto Matic  
   solution date      2016-Jan-04 12:48:26  

Additional Information
 Earth MOID = 1.22989 au 
 Jupiter MOID = 2.43513 au 
 T_jup = 3.355 
[ show covariance matrix ]

Ephemeris | Orbit Diagram | Orbital Elements | Physical Parameters | Discovery Circumstances | Close-Approach Data ]

Physical Parameter Table
Parameter Symbol Value Units Sigma Reference Notes
absolute magnitude H 12.5 mag n/a MPO358663  
rotation period rot_per 14. h n/a LCDB (Rev. 2015-December); Warner et al., 2009 lower-limit; Result based on fragmentary lightcurve(s), may be completely wrong.
Published Reference List:
[Alvarez-Candal, A.; Duffard, R.; Angeli, C.A.; Lazzaro, D.; Fernandez, S. (2004) Icarus 172, 388-401.]

3537 Jurgen (1982 VT)          Discovered 1982-Nov-15 by Bowell, E. at Flagstaff (AM)
Discovered at the Anderson Mesa station, which is operated by the Lowell Observatory.
Reference: DISCOVERY.DBLast Updated: 2003-08-29

[ show close-approach data ]
Alternate Designations
 1982 VT = 1985 JE1 
Ephemeris | Orbit Diagram | Orbital Elements | Physical Parameters | Discovery Circumstances | Close-Approach Data ]
ABOUT SSD CREDITS/AWARDS PRIVACY/COPYRIGHT GLOSSARY LINKS
FirstGov 2016-Feb-06 02:52 UT
(server date/time)  
NASA Home Page
Site Manager:   Ryan S. Park
Webmaster  Alan B. Chamberlin